Tabellarische Ansicht des 8.8.2016


Die einzelnen Werte des Tages

Uhrzeit Temperatur Luftdruck Luftfeuchte Wind Hi-Wind Taupunkt THW Index Wind Chill Heat Index Solar- strahlung Regen

00:00

21.1 C

1016.6 hpa

78 %

11.3 km/h aus 116

22.5 km/h aus S

17.1 C

21.6 C

21.1 C

21.6 C

0 W/m

0.00 mm

00:05

21.1 C

1016.6 hpa

78 %

12.9 km/h aus 113

20.9 km/h aus S

17.1 C

21.3 C

20.8 C

21.6 C

0 W/m

0.00 mm

00:10

21.1 C

1016.6 hpa

78 %

14.5 km/h aus 116

27.4 km/h aus SSW

17.1 C

20.8 C

20.3 C

21.6 C

0 W/m

0.00 mm

00:15

21.2 C

1016.4 hpa

78 %

12.9 km/h aus 117

25.7 km/h aus S

17.2 C

21.4 C

20.9 C

21.7 C

0 W/m

0.00 mm

00:20

21.2 C

1016.4 hpa

78 %

9.7 km/h aus 117

17.7 km/h aus S

17.2 C

21.7 C

21.2 C

21.7 C

0 W/m

0.00 mm

00:25

21.3 C

1016.4 hpa

78 %

11.3 km/h aus 115

20.9 km/h aus S

17.3 C

21.8 C

21.3 C

21.8 C

0 W/m

0.00 mm

00:30

21.3 C

1016.1 hpa

77 %

8.0 km/h aus 115

14.5 km/h aus S

17.1 C

21.8 C

21.3 C

21.8 C

0 W/m

0.00 mm

00:35

21.3 C

1016.1 hpa

77 %

8.0 km/h aus 117

14.5 km/h aus SSW

17.1 C

21.8 C

21.3 C

21.8 C

0 W/m

0.00 mm

00:40

21.3 C

1016.1 hpa

77 %

9.7 km/h aus 118

14.5 km/h aus S

17.1 C

21.8 C

21.3 C

21.8 C

0 W/m

0.00 mm

00:45

21.3 C

1015.9 hpa

77 %

11.3 km/h aus 117

22.5 km/h aus S

17.1 C

21.8 C

21.3 C

21.8 C

0 W/m

0.00 mm

00:50

21.3 C

1015.9 hpa

77 %

11.3 km/h aus 114

22.5 km/h aus S

17.1 C

21.8 C

21.3 C

21.8 C

0 W/m

0.00 mm

00:55

21.3 C

1015.9 hpa

77 %

9.7 km/h aus 117

20.9 km/h aus S

17.1 C

21.8 C

21.3 C

21.8 C

0 W/m

0.00 mm

01:00

21.4 C

1015.8 hpa

76 %

11.3 km/h aus 117

22.5 km/h aus S

17.0 C

21.8 C

21.4 C

21.8 C

0 W/m

0.00 mm

01:05

21.4 C

1015.8 hpa

75 %

9.7 km/h aus 117

22.5 km/h aus SSW

16.8 C

21.8 C

21.4 C

21.8 C

0 W/m

0.00 mm

01:10

21.5 C

1015.8 hpa

75 %

11.3 km/h aus 116

20.9 km/h aus SSW

16.9 C

21.9 C

21.5 C

21.9 C

0 W/m

0.00 mm

01:15

21.6 C

1015.8 hpa

75 %

11.3 km/h aus 115

20.9 km/h aus SSW

16.9 C

22.0 C

21.6 C

22.0 C

0 W/m

0.00 mm

01:20

21.6 C

1015.8 hpa

75 %

9.7 km/h aus 117

24.1 km/h aus S

17.0 C

22.1 C

21.6 C

22.1 C

0 W/m

0.00 mm

01:25

21.6 C

1015.8 hpa

74 %

9.7 km/h aus 117

19.3 km/h aus SSW

16.8 C

22.0 C

21.6 C

22.0 C

0 W/m

0.00 mm

01:30

21.6 C

1015.6 hpa

74 %

8.0 km/h aus 117

19.3 km/h aus SSW

16.7 C

21.9 C

21.6 C

21.9 C

0 W/m

0.00 mm

01:35

21.5 C

1015.6 hpa

74 %

8.0 km/h aus 115

17.7 km/h aus SSW

16.7 C

21.9 C

21.5 C

21.9 C

0 W/m

0.00 mm

01:40

21.4 C

1015.6 hpa

75 %

6.4 km/h aus 116

11.3 km/h aus SW

16.8 C

21.8 C

21.4 C

21.8 C

0 W/m

0.00 mm

01:45

21.4 C

1015.3 hpa

75 %

3.2 km/h aus 118

9.7 km/h aus SSW

16.8 C

21.8 C

21.4 C

21.8 C

0 W/m

0.00 mm

01:50

21.3 C

1015.3 hpa

75 %

6.4 km/h aus 117

12.9 km/h aus SW

16.7 C

21.7 C

21.3 C

21.7 C

0 W/m

0.00 mm

01:55

21.3 C

1015.3 hpa

75 %

4.8 km/h aus 115

9.7 km/h aus S

16.7 C

21.7 C

21.3 C

21.7 C

0 W/m

0.00 mm

02:00

21.2 C

1015.3 hpa

76 %

8.0 km/h aus 114

17.7 km/h aus SSW

16.8 C

21.6 C

21.2 C

21.6 C

0 W/m

0.00 mm

02:05

21.2 C

1015.3 hpa

76 %

8.0 km/h aus 117

14.5 km/h aus SW

16.8 C

21.6 C

21.2 C

21.6 C

0 W/m

0.00 mm

02:10

21.2 C

1015.3 hpa

76 %

6.4 km/h aus 117

11.3 km/h aus SW

16.8 C

21.6 C

21.2 C

21.6 C

0 W/m

0.00 mm

02:15

21.1 C

1015.0 hpa

76 %

6.4 km/h aus 117

14.5 km/h aus SW

16.7 C

21.4 C

21.1 C

21.4 C

0 W/m

0.00 mm

02:20

21.0 C

1015.0 hpa

76 %

6.4 km/h aus 115

9.7 km/h aus SSW

16.6 C

21.4 C

21.0 C

21.4 C

0 W/m

0.00 mm

02:25

20.9 C

1015.0 hpa

77 %

6.4 km/h aus 115

16.1 km/h aus SW

16.8 C

21.4 C

20.9 C

21.4 C

0 W/m

0.00 mm

02:30

20.9 C

1014.8 hpa

77 %

8.0 km/h aus 117

19.3 km/h aus SSE

16.8 C

21.4 C

20.9 C

21.4 C

0 W/m

0.00 mm

02:35

20.9 C

1014.8 hpa

77 %

11.3 km/h aus 116

24.1 km/h aus S

16.8 C

21.4 C

20.9 C

21.4 C

0 W/m

0.00 mm

02:40

21.0 C

1014.8 hpa

77 %

11.3 km/h aus 117

20.9 km/h aus SSW

16.8 C

21.5 C

21.0 C

21.5 C

0 W/m

0.00 mm

02:45

21.1 C

1014.7 hpa

77 %

12.9 km/h aus 114

24.1 km/h aus SW

16.9 C

21.2 C

20.8 C

21.5 C

0 W/m

0.00 mm

02:50

21.1 C

1014.7 hpa

76 %

8.0 km/h aus 117

22.5 km/h aus WSW

16.7 C

21.5 C

21.1 C

21.5 C

0 W/m

0.00 mm

02:55

21.2 C

1014.7 hpa

76 %

9.7 km/h aus 117

20.9 km/h aus SSW

16.8 C

21.6 C

21.2 C

21.6 C

0 W/m

0.00 mm

03:00

21.2 C

1014.5 hpa

76 %

6.4 km/h aus 117

14.5 km/h aus SW

16.8 C

21.6 C

21.2 C

21.6 C

0 W/m

0.00 mm

03:05

21.2 C

1014.5 hpa

76 %

4.8 km/h aus 116

9.7 km/h aus SW

16.8 C

21.6 C

21.2 C

21.6 C

0 W/m

0.00 mm

03:10

21.1 C

1014.5 hpa

77 %

6.4 km/h aus 113

17.7 km/h aus SW

16.9 C

21.6 C

21.1 C

21.6 C

0 W/m

0.00 mm

03:15

21.1 C

1014.3 hpa

77 %

8.0 km/h aus 116

14.5 km/h aus SSW

16.9 C

21.6 C

21.1 C

21.6 C

0 W/m

0.00 mm

03:20

21.1 C

1014.3 hpa

77 %

6.4 km/h aus 117

17.7 km/h aus S

16.9 C

21.5 C

21.1 C

21.5 C

0 W/m

0.00 mm

03:25

21.1 C

1014.3 hpa

77 %

9.7 km/h aus 116

24.1 km/h aus SW

16.9 C

21.5 C

21.1 C

21.5 C

0 W/m

0.00 mm

03:30

21.1 C

1014.2 hpa

77 %

12.9 km/h aus 115

20.9 km/h aus SW

16.9 C

21.2 C

20.8 C

21.5 C

0 W/m

0.00 mm

03:35

21.0 C

1014.2 hpa

77 %

9.7 km/h aus 115

19.3 km/h aus SSW

16.8 C

21.5 C

21.0 C

21.5 C

0 W/m

0.00 mm

03:40

21.0 C

1014.2 hpa

77 %

8.0 km/h aus 117

16.1 km/h aus SSW

16.8 C

21.5 C

21.0 C

21.5 C

0 W/m

0.00 mm

03:45

20.9 C

1013.9 hpa

77 %

6.4 km/h aus 116

14.5 km/h aus SW

16.8 C

21.4 C

20.9 C

21.4 C

0 W/m

0.00 mm

03:50

20.9 C

1013.9 hpa

77 %

8.0 km/h aus 117

16.1 km/h aus SW

16.7 C

21.4 C

20.9 C

21.4 C

0 W/m

0.00 mm

03:55

20.8 C

1013.9 hpa

78 %

11.3 km/h aus 115

25.7 km/h aus SW

16.9 C

21.4 C

20.8 C

21.4 C

0 W/m

0.00 mm

04:00

20.8 C

1013.8 hpa

77 %

12.9 km/h aus 116

25.7 km/h aus SW

16.7 C

21.1 C

20.5 C

21.4 C

0 W/m

0.00 mm

04:05

20.8 C

1013.8 hpa

77 %

12.9 km/h aus 117

25.7 km/h aus SW

16.7 C

21.1 C

20.5 C

21.4 C

0 W/m

0.00 mm

04:10

20.8 C

1013.8 hpa

77 %

12.9 km/h aus 116

19.3 km/h aus S

16.7 C

21.1 C

20.5 C

21.4 C

0 W/m

0.00 mm

04:15

20.8 C

1013.8 hpa

77 %

12.9 km/h aus 115

25.7 km/h aus SW

16.6 C

21.0 C

20.4 C

21.3 C

0 W/m

0.00 mm

04:20

20.7 C

1013.8 hpa

77 %

12.9 km/h aus 115

22.5 km/h aus SSW

16.5 C

21.0 C

20.4 C

21.3 C

0 W/m

0.00 mm

04:25

20.7 C

1013.8 hpa

78 %

11.3 km/h aus 117

22.5 km/h aus SW

16.7 C

21.3 C

20.7 C

21.3 C

0 W/m

0.00 mm

04:30

20.6 C

1013.7 hpa

78 %

8.0 km/h aus 116

20.9 km/h aus SSW

16.6 C

21.3 C

20.6 C

21.3 C

0 W/m

0.00 mm

04:35

20.6 C

1013.7 hpa

78 %

9.7 km/h aus 117

22.5 km/h aus SSW

16.6 C

21.3 C

20.6 C

21.3 C

0 W/m

0.00 mm

04:40

20.6 C

1013.7 hpa

78 %

9.7 km/h aus 115

17.7 km/h aus SSW

16.6 C

21.3 C

20.6 C

21.3 C

0 W/m

0.00 mm

04:45

20.5 C

1013.7 hpa

79 %

9.7 km/h aus 116

25.7 km/h aus SSW

16.7 C

21.3 C

20.5 C

21.3 C

0 W/m

0.00 mm

04:50

20.4 C

1013.7 hpa

78 %

17.7 km/h aus 117

32.2 km/h aus SW

16.5 C

19.7 C

19.0 C

21.2 C

0 W/m

0.00 mm

04:55

20.4 C

1013.7 hpa

78 %

11.3 km/h aus 117

24.1 km/h aus WSW

16.4 C

21.1 C

20.4 C

21.1 C

0 W/m

0.00 mm

05:00

20.3 C

1013.7 hpa

78 %

14.5 km/h aus 117

29.0 km/h aus SW

16.4 C

20.2 C

19.6 C

21.0 C

0 W/m

0.00 mm

05:05

20.2 C

1013.7 hpa

78 %

14.5 km/h aus 114

25.7 km/h aus SW

16.3 C

20.1 C

19.4 C

20.9 C

0 W/m

0.00 mm

05:10

20.2 C

1013.7 hpa

78 %

16.1 km/h aus 117

25.7 km/h aus S

16.3 C

19.7 C

19.1 C

20.9 C

0 W/m

0.00 mm

05:15

20.2 C

1013.6 hpa

78 %

11.3 km/h aus 117

22.5 km/h aus SW

16.2 C

20.8 C

20.2 C

20.8 C

0 W/m

0.00 mm

05:20

20.1 C

1013.6 hpa

78 %

8.0 km/h aus 117

20.9 km/h aus SW

16.2 C

20.8 C

20.1 C

20.8 C

0 W/m

0.00 mm

05:25

20.0 C

1013.6 hpa

78 %

9.7 km/h aus 115

20.9 km/h aus SSW

16.0 C

20.6 C

20.0 C

20.6 C

0 W/m

0.00 mm

05:30

19.9 C

1013.7 hpa

78 %

9.7 km/h aus 115

24.1 km/h aus SW

16.0 C

20.6 C

19.9 C

20.6 C

0 W/m

0.00 mm

05:35

19.9 C

1013.7 hpa

78 %

8.0 km/h aus 117

20.9 km/h aus WSW

15.9 C

20.5 C

19.9 C

20.5 C

0 W/m

0.00 mm

05:40

19.8 C

1013.7 hpa

78 %

6.4 km/h aus 117

16.1 km/h aus WSW

15.9 C

20.4 C

19.8 C

20.4 C

0 W/m

0.00 mm

05:45

19.8 C

1013.7 hpa

78 %

12.9 km/h aus 117

22.5 km/h aus SW

15.8 C

20.0 C

19.4 C

20.4 C

0 W/m

0.00 mm

05:50

19.7 C

1013.7 hpa

78 %

8.0 km/h aus 115

17.7 km/h aus SW

15.8 C

20.3 C

19.7 C

20.3 C

0 W/m

0.00 mm

05:55

19.7 C

1013.7 hpa

78 %

8.0 km/h aus 116

19.3 km/h aus WSW

15.7 C

20.2 C

19.7 C

20.2 C

3 W/m

0.00 mm

06:00

19.5 C

1013.7 hpa

78 %

11.3 km/h aus 118

20.9 km/h aus SW

15.6 C

20.1 C

19.5 C

20.1 C

6 W/m

0.00 mm

06:05

19.4 C

1013.7 hpa

78 %

8.0 km/h aus 117

19.3 km/h aus SW

15.5 C

19.9 C

19.4 C

19.9 C

9 W/m

0.00 mm

06:10

19.3 C

1013.7 hpa

78 %

9.7 km/h aus 116

20.9 km/h aus W

15.4 C

19.8 C

19.3 C

19.8 C

12 W/m

0.00 mm

06:15

19.2 C

1013.9 hpa

77 %

9.7 km/h aus 114

20.9 km/h aus W

15.1 C

19.7 C

19.2 C

19.7 C

19 W/m

0.00 mm

06:20

19.1 C

1013.9 hpa

77 %

12.9 km/h aus 116

24.1 km/h aus SW

15.0 C

19.2 C

18.8 C

19.5 C

24 W/m

0.00 mm

06:25

19.1 C

1013.9 hpa

77 %

14.5 km/h aus 117

22.5 km/h aus SW

14.9 C

18.7 C

18.3 C

19.4 C

26 W/m

0.00 mm

06:30

19.1 C

1013.7 hpa

77 %

12.9 km/h aus 117

24.1 km/h aus SSW

14.9 C

19.1 C

18.7 C

19.4 C

27 W/m

0.00 mm

06:35

19.0 C

1013.7 hpa

77 %

11.3 km/h aus 115

24.1 km/h aus SSW

14.9 C

19.4 C

19.0 C

19.4 C

36 W/m

0.00 mm

06:40

19.0 C

1013.7 hpa

76 %

12.9 km/h aus 114

22.5 km/h aus SSW

14.7 C

19.0 C

18.7 C

19.3 C

39 W/m

0.00 mm

06:45

19.0 C

1013.7 hpa

76 %

8.0 km/h aus 117

20.9 km/h aus WSW

14.7 C

19.3 C

19.0 C

19.3 C

57 W/m

0.00 mm

06:50

19.1 C

1013.7 hpa

76 %

12.9 km/h aus 117

22.5 km/h aus SW

14.7 C

19.1 C

18.7 C

19.4 C

71 W/m

0.00 mm

06:55

19.1 C

1013.7 hpa

75 %

12.9 km/h aus 116

32.2 km/h aus SSW

14.6 C

19.1 C

18.8 C

19.4 C

60 W/m

0.00 mm

07:00

19.1 C

1013.7 hpa

74 %

11.3 km/h aus 115

22.5 km/h aus SW

14.4 C

19.4 C

19.1 C

19.4 C

82 W/m

0.00 mm

07:05

19.2 C

1013.7 hpa

73 %

16.1 km/h aus 115

30.6 km/h aus SW

14.2 C

18.3 C

18.1 C

19.4 C

82 W/m

0.00 mm

07:10

19.2 C

1013.7 hpa

74 %

14.5 km/h aus 117

27.4 km/h aus W

14.4 C

18.7 C

18.4 C

19.4 C

109 W/m

0.00 mm

07:15

19.2 C

1014.1 hpa

73 %

14.5 km/h aus 117

29.0 km/h aus SW

14.2 C

18.7 C

18.4 C

19.4 C

112 W/m

0.00 mm

07:20

19.3 C

1014.1 hpa

73 %

16.1 km/h aus 117

30.6 km/h aus SSW

14.3 C

18.4 C

18.2 C

19.6 C

156 W/m

0.00 mm

07:25

19.3 C

1014.1 hpa

73 %

12.9 km/h aus 114

29.0 km/h aus SW

14.3 C

19.2 C

18.9 C

19.6 C

148 W/m

0.00 mm

07:30

19.3 C

1013.8 hpa

73 %

16.1 km/h aus 116

29.0 km/h aus WSW

14.3 C

18.4 C

18.2 C

19.6 C

102 W/m

0.00 mm

07:35

19.3 C

1013.8 hpa

72 %

16.1 km/h aus 116

32.2 km/h aus SSW

14.1 C

18.4 C

18.2 C

19.6 C

188 W/m

0.00 mm

07:40

19.3 C

1013.8 hpa

72 %

17.7 km/h aus 117

29.0 km/h aus SW

14.1 C

18.1 C

17.8 C

19.6 C

215 W/m

0.00 mm

07:45

19.3 C

1013.8 hpa

71 %

16.1 km/h aus 116

30.6 km/h aus S

13.9 C

18.4 C

18.2 C

19.6 C

203 W/m

0.00 mm

07:50

19.4 C

1013.8 hpa

71 %

12.9 km/h aus 114

30.6 km/h aus SW

14.0 C

19.3 C

19.1 C

19.6 C

240 W/m

0.00 mm

07:55

19.5 C

1013.8 hpa

71 %

16.1 km/h aus 117

27.4 km/h aus SSW

14.1 C

18.7 C

18.4 C

19.8 C

220 W/m

0.00 mm

08:00

19.6 C

1013.7 hpa

71 %

17.7 km/h aus 117

29.0 km/h aus SW

14.2 C

18.4 C

18.1 C

19.8 C

262 W/m

0.00 mm

08:05

19.6 C

1013.7 hpa

72 %

16.1 km/h aus 117

29.0 km/h aus WSW

14.4 C

18.8 C

18.5 C

19.9 C

271 W/m

0.00 mm

08:10

19.7 C

1013.7 hpa

72 %

16.1 km/h aus 116

29.0 km/h aus WSW

14.5 C

18.9 C

18.6 C

20.1 C

284 W/m

0.00 mm

08:15

19.8 C

1013.7 hpa

72 %

17.7 km/h aus 115

27.4 km/h aus SSW

14.6 C

18.7 C

18.3 C

20.1 C

298 W/m

0.00 mm

08:20

19.9 C

1013.7 hpa

73 %

11.3 km/h aus 117

24.1 km/h aus S

14.9 C

20.3 C

19.9 C

20.3 C

313 W/m

0.00 mm

08:25

20.1 C

1013.7 hpa

73 %

9.7 km/h aus 117

17.7 km/h aus SW

15.1 C

20.5 C

20.1 C

20.5 C

326 W/m

0.00 mm

08:30

20.2 C

1013.8 hpa

72 %

11.3 km/h aus 116

22.5 km/h aus WSW

15.0 C

20.6 C

20.2 C

20.6 C

339 W/m

0.00 mm

08:35

20.2 C

1013.8 hpa

71 %

12.9 km/h aus 114

25.7 km/h aus WSW

14.8 C

20.2 C

19.8 C

20.6 C

214 W/m

0.00 mm

08:40

20.2 C

1013.8 hpa

72 %

16.1 km/h aus 116

30.6 km/h aus WSW

15.0 C

19.4 C

19.0 C

20.6 C

283 W/m

0.00 mm

08:45

20.1 C

1013.7 hpa

72 %

16.1 km/h aus 116

32.2 km/h aus SW

14.9 C

19.3 C

18.9 C

20.5 C

181 W/m

0.00 mm

08:50

20.0 C

1013.7 hpa

72 %

17.7 km/h aus 117

33.8 km/h aus SW

14.8 C

18.9 C

18.6 C

20.4 C

218 W/m

0.00 mm

08:55

19.8 C

1013.7 hpa

72 %

17.7 km/h aus 115

35.4 km/h aus WSW

14.6 C

18.8 C

18.4 C

20.2 C

146 W/m

0.00 mm

09:00

19.8 C

1013.9 hpa

73 %

14.5 km/h aus 114

27.4 km/h aus SW

14.8 C

19.4 C

19.0 C

20.2 C

208 W/m

0.00 mm

09:05

19.7 C

1013.9 hpa

74 %

11.3 km/h aus 117

22.5 km/h aus WSW

15.0 C

20.1 C

19.7 C

20.1 C

182 W/m

0.00 mm

09:10

19.6 C

1013.9 hpa

75 %

8.0 km/h aus 118

19.3 km/h aus WSW

15.0 C

19.9 C

19.6 C

19.9 C

106 W/m

0.00 mm

09:15

19.3 C

1014.0 hpa

75 %

16.1 km/h aus 117

33.8 km/h aus W

14.8 C

18.6 C

18.2 C

19.7 C

137 W/m

0.00 mm

09:20

19.2 C

1014.0 hpa

75 %

19.3 km/h aus 115

30.6 km/h aus WSW

14.6 C

17.7 C

17.3 C

19.5 C

120 W/m

0.00 mm

09:25

18.9 C

1014.0 hpa

75 %

17.7 km/h aus 116

32.2 km/h aus WSW

14.4 C

17.7 C

17.4 C

19.2 C

97 W/m

0.00 mm

09:30

18.8 C

1014.1 hpa

75 %

20.9 km/h aus 116

33.8 km/h aus WSW

14.3 C

16.9 C

16.6 C

19.1 C

96 W/m

0.00 mm

09:35

18.7 C

1014.1 hpa

76 %

22.5 km/h aus 117

33.8 km/h aus SW

14.3 C

16.6 C

16.3 C

18.9 C

139 W/m

0.00 mm

09:40

18.7 C

1014.1 hpa

76 %

19.3 km/h aus 116

35.4 km/h aus W

14.3 C

17.1 C

16.8 C

18.9 C

188 W/m

0.00 mm

09:45

18.7 C

1014.2 hpa

76 %

19.3 km/h aus 115

30.6 km/h aus W

14.3 C

17.1 C

16.8 C

18.9 C

145 W/m

0.00 mm

09:50

18.6 C

1014.2 hpa

76 %

14.5 km/h aus 117

24.1 km/h aus SW

14.3 C

18.2 C

17.9 C

18.9 C

134 W/m

0.00 mm

09:55

18.7 C

1014.2 hpa

76 %

14.5 km/h aus 117

25.7 km/h aus SW

14.3 C

18.2 C

17.9 C

18.9 C

130 W/m

0.00 mm

10:00

18.6 C

1014.2 hpa

75 %

12.9 km/h aus 117

24.1 km/h aus SSW

14.1 C

18.5 C

18.3 C

18.8 C

131 W/m

0.00 mm

10:05

18.6 C

1014.2 hpa

75 %

14.5 km/h aus 115

30.6 km/h aus WSW

14.0 C

18.0 C

17.8 C

18.8 C

142 W/m

0.00 mm

10:10

18.7 C

1014.2 hpa

75 %

12.9 km/h aus 116

24.1 km/h aus SSE

14.1 C

18.6 C

18.3 C

18.9 C

157 W/m

0.00 mm

10:15

18.7 C

1014.2 hpa

74 %

16.1 km/h aus 118

25.7 km/h aus SSW

13.9 C

17.7 C

17.5 C

18.9 C

171 W/m

0.00 mm

10:20

18.6 C

1014.2 hpa

74 %

16.1 km/h aus 117

30.6 km/h aus SW

13.9 C

17.6 C

17.4 C

18.8 C

152 W/m

0.00 mm

10:25

18.7 C

1014.2 hpa

75 %

11.3 km/h aus 117

22.5 km/h aus WSW

14.1 C

18.9 C

18.7 C

18.9 C

145 W/m

0.00 mm

10:30

18.6 C

1014.3 hpa

74 %

14.5 km/h aus 113

24.1 km/h aus WSW

13.9 C

18.1 C

17.9 C

18.8 C

143 W/m

0.00 mm

10:35

18.6 C

1014.3 hpa

75 %

12.9 km/h aus 117

30.6 km/h aus SSW

14.1 C

18.5 C

18.3 C

18.8 C

152 W/m

0.00 mm

10:40

18.7 C

1014.3 hpa

75 %

17.7 km/h aus 117

32.2 km/h aus S

14.1 C

17.3 C

17.1 C

18.9 C

177 W/m

0.00 mm

10:45

18.7 C

1014.3 hpa

75 %

14.5 km/h aus 117

25.7 km/h aus SW

14.1 C

18.2 C

17.9 C

18.9 C

185 W/m

0.00 mm

10:50

18.8 C

1014.3 hpa

75 %

12.9 km/h aus 114

25.7 km/h aus S

14.3 C

18.7 C

18.4 C

19.1 C

209 W/m

0.00 mm

10:55

18.8 C

1014.3 hpa

74 %

16.1 km/h aus 114

27.4 km/h aus SSW

14.0 C

17.9 C

17.7 C

19.0 C

257 W/m

0.00 mm

11:00

18.9 C

1014.2 hpa

74 %

16.1 km/h aus 115

29.0 km/h aus SW

14.2 C

18.0 C

17.8 C

19.1 C

302 W/m

0.00 mm

11:05

19.1 C

1014.2 hpa

75 %

14.5 km/h aus 117

25.7 km/h aus WSW

14.5 C

18.7 C

18.3 C

19.4 C

321 W/m

0.00 mm

11:10

19.3 C

1014.2 hpa

74 %

14.5 km/h aus 117

27.4 km/h aus SW

14.5 C

18.9 C

18.6 C

19.6 C

351 W/m

0.00 mm

11:15

19.4 C

1014.2 hpa

73 %

14.5 km/h aus 114

29.0 km/h aus WSW

14.5 C

19.1 C

18.7 C

19.8 C

341 W/m

0.00 mm

11:20

19.4 C

1014.2 hpa

73 %

14.5 km/h aus 115

27.4 km/h aus SW

14.5 C

19.1 C

18.7 C

19.8 C

303 W/m

0.00 mm

11:25

19.6 C

1014.2 hpa

73 %

12.9 km/h aus 117

27.4 km/h aus WSW

14.6 C

19.6 C

19.2 C

19.9 C

296 W/m

0.00 mm

11:30

19.7 C

1014.3 hpa

73 %

14.5 km/h aus 117

25.7 km/h aus S

14.7 C

19.3 C

18.9 C

20.1 C

381 W/m

0.00 mm

11:35

19.7 C

1014.3 hpa

73 %

16.1 km/h aus 117

27.4 km/h aus SSW

14.7 C

18.9 C

18.6 C

20.1 C

303 W/m

0.00 mm

11:40

19.6 C

1014.3 hpa

73 %

9.7 km/h aus 114

25.7 km/h aus W

14.6 C

19.9 C

19.6 C

19.9 C

224 W/m

0.00 mm

11:45

19.5 C

1014.3 hpa

73 %

11.3 km/h aus 117

22.5 km/h aus SW

14.5 C

19.8 C

19.5 C

19.8 C

191 W/m

0.00 mm

11:50

19.4 C

1014.3 hpa

74 %

16.1 km/h aus 116

33.8 km/h aus W

14.6 C

18.6 C

18.3 C

19.7 C

177 W/m

0.00 mm

11:55

19.5 C

1014.3 hpa

74 %

12.9 km/h aus 117

20.9 km/h aus SSW

14.7 C

19.6 C

19.2 C

19.9 C

299 W/m

0.00 mm

12:00

19.6 C

1014.4 hpa

73 %

16.1 km/h aus 116

29.0 km/h aus SSW

14.6 C

18.8 C

18.5 C

19.9 C

294 W/m

0.00 mm

12:05

19.7 C

1014.4 hpa

73 %

16.1 km/h aus 115

29.0 km/h aus SW

14.7 C

18.9 C

18.6 C

20.1 C

324 W/m

0.00 mm

12:10

20.3 C

1014.4 hpa

73 %

14.5 km/h aus 117

29.0 km/h aus WSW

15.3 C

19.9 C

19.5 C

20.7 C

593 W/m

0.00 mm

12:15

20.4 C

1014.4 hpa

71 %

19.3 km/h aus 117

29.0 km/h aus WSW

15.0 C

19.0 C

18.7 C

20.7 C

490 W/m

0.00 mm

12:20

19.9 C

1014.4 hpa

71 %

17.7 km/h aus 117

32.2 km/h aus W

14.5 C

18.8 C

18.4 C

20.2 C

220 W/m

0.00 mm

12:25

19.6 C

1014.4 hpa

72 %

16.1 km/h aus 115

30.6 km/h aus W

14.4 C

18.8 C

18.5 C

19.9 C

218 W/m

0.00 mm

12:30

19.6 C

1014.5 hpa

73 %

14.5 km/h aus 116

25.7 km/h aus WSW

14.6 C

19.2 C

18.8 C

19.9 C

225 W/m

0.00 mm

12:35

19.5 C

1014.5 hpa

72 %

14.5 km/h aus 117

29.0 km/h aus SSW

14.3 C

19.1 C

18.8 C

19.8 C

195 W/m

0.00 mm

12:40

19.4 C

1014.5 hpa

72 %

17.7 km/h aus 117

27.4 km/h aus SW

14.2 C

18.2 C

17.9 C

19.7 C

141 W/m

0.00 mm

12:45

19.2 C

1014.6 hpa

73 %

16.1 km/h aus 116

30.6 km/h aus SSW

14.3 C

18.4 C

18.1 C

19.5 C

129 W/m

0.00 mm

12:50

19.1 C

1014.6 hpa

74 %

12.9 km/h aus 113

22.5 km/h aus WSW

14.4 C

19.1 C

18.8 C

19.4 C

134 W/m

0.00 mm

12:55

19.1 C

1014.6 hpa

75 %

11.3 km/h aus 116

24.1 km/h aus SW

14.5 C

19.4 C

19.1 C

19.4 C

94 W/m

0.00 mm

13:00

19.1 C

1014.7 hpa

74 %

16.1 km/h aus 117

25.7 km/h aus W

14.3 C

18.2 C

17.9 C

19.3 C

70 W/m

0.00 mm

13:05

19.0 C

1014.7 hpa

75 %

14.5 km/h aus 117

30.6 km/h aus SSW

14.5 C

18.6 C

18.3 C

19.3 C

176 W/m

0.00 mm

13:10

19.0 C

1014.7 hpa

75 %

16.1 km/h aus 115

27.4 km/h aus S

14.5 C

18.2 C

17.9 C

19.3 C

198 W/m

0.00 mm

13:15

19.1 C

1014.7 hpa

75 %

17.7 km/h aus 115

25.7 km/h aus SSW

14.5 C

17.9 C

17.6 C

19.4 C

232 W/m

0.00 mm

13:20

19.1 C

1014.7 hpa

75 %

17.7 km/h aus 117

29.0 km/h aus SSW

14.6 C

17.9 C

17.6 C

19.4 C

219 W/m

0.00 mm

13:25

19.1 C

1014.7 hpa

75 %

14.5 km/h aus 117

33.8 km/h aus SW

14.5 C

18.7 C

18.3 C

19.4 C

195 W/m

0.00 mm

13:30

19.1 C

1014.8 hpa

76 %

9.7 km/h aus 117

22.5 km/h aus SW

14.8 C

19.5 C

19.1 C

19.5 C

191 W/m

0.00 mm

13:35

19.1 C

1014.8 hpa

75 %

14.5 km/h aus 114

20.9 km/h aus WSW

14.5 C

18.7 C

18.3 C

19.4 C

178 W/m

0.00 mm

13:40

18.9 C

1014.8 hpa

75 %

17.7 km/h aus 116

29.0 km/h aus SW

14.4 C

17.7 C

17.4 C

19.2 C

97 W/m

0.00 mm

13:45

18.8 C

1014.9 hpa

75 %

14.5 km/h aus 116

27.4 km/h aus SW

14.3 C

18.4 C

18.1 C

19.1 C

78 W/m

0.00 mm

13:50

18.8 C

1014.9 hpa

76 %

16.1 km/h aus 116

27.4 km/h aus WSW

14.5 C

17.9 C

17.7 C

19.1 C

61 W/m

0.00 mm

13:55

18.7 C

1014.9 hpa

77 %

14.5 km/h aus 116

25.7 km/h aus W

14.6 C

18.3 C

18.0 C

19.1 C

62 W/m

0.00 mm

14:00

18.6 C

1015.1 hpa

79 %

12.9 km/h aus 114

24.1 km/h aus WSW

14.8 C

18.6 C

18.2 C

18.9 C

80 W/m

0.00 mm

14:05

18.4 C

1015.1 hpa

79 %

9.7 km/h aus 117

20.9 km/h aus SSW

14.7 C

18.8 C

18.4 C

18.8 C

73 W/m

0.00 mm

14:10

18.3 C

1015.1 hpa

79 %

8.0 km/h aus 117

17.7 km/h aus W

14.6 C

18.7 C

18.3 C

18.7 C

70 W/m

0.00 mm

14:15

18.3 C

1015.2 hpa

80 %

8.0 km/h aus 117

22.5 km/h aus W

14.8 C

18.7 C

18.3 C

18.7 C

76 W/m

0.00 mm

14:20

18.2 C

1015.2 hpa

79 %

8.0 km/h aus 115

19.3 km/h aus SW

14.5 C

18.6 C

18.2 C

18.6 C

137 W/m

0.00 mm

14:25

18.2 C

1015.2 hpa

78 %

16.1 km/h aus 114

29.0 km/h aus W

14.3 C

17.3 C

17.0 C

18.5 C

180 W/m

0.00 mm

14:30

18.3 C

1015.1 hpa

78 %

11.3 km/h aus 118

24.1 km/h aus SW

14.4 C

18.6 C

18.3 C

18.6 C

240 W/m

0.00 mm

14:35

18.4 C

1015.1 hpa

77 %

16.1 km/h aus 117

27.4 km/h aus S

14.3 C

17.5 C

17.2 C

18.7 C

239 W/m

0.00 mm

14:40

18.6 C

1015.1 hpa

75 %

16.1 km/h aus 117

27.4 km/h aus SW

14.0 C

17.6 C

17.4 C

18.8 C

239 W/m

0.00 mm

14:45

18.6 C

1015.1 hpa

74 %

19.3 km/h aus 114

30.6 km/h aus SSW

13.8 C

16.8 C

16.6 C

18.7 C

251 W/m

0.00 mm

14:50

18.6 C

1015.1 hpa

74 %

17.7 km/h aus 116

27.4 km/h aus SSW

13.9 C

17.2 C

17.1 C

18.8 C

247 W/m

0.00 mm

14:55

18.5 C

1015.1 hpa

74 %

19.3 km/h aus 117

32.2 km/h aus SSW

13.8 C

16.7 C

16.6 C

18.7 C

266 W/m

0.00 mm

15:00

18.2 C

1015.2 hpa

75 %

20.9 km/h aus 117

30.6 km/h aus SSW

13.7 C

16.2 C

16.0 C

18.4 C

229 W/m

0.00 mm

15:05

18.2 C

1015.2 hpa

76 %

12.9 km/h aus 116

24.1 km/h aus SW

13.9 C

17.9 C

17.8 C

18.3 C

223 W/m

0.00 mm

15:10

18.0 C

1015.2 hpa

77 %

19.3 km/h aus 114

41.8 km/h aus S

13.9 C

16.2 C

16.0 C

18.2 C

195 W/m

0.00 mm

15:15

17.6 C

1015.2 hpa

77 %

19.3 km/h aus 117

41.8 km/h aus S

13.5 C

15.6 C

15.5 C

17.7 C

202 W/m

0.00 mm

15:20

17.5 C

1015.2 hpa

79 %

16.1 km/h aus 116

24.1 km/h aus SSW

13.8 C

16.3 C

16.2 C

17.7 C

274 W/m

0.00 mm

15:25

17.3 C

1015.2 hpa

80 %

16.1 km/h aus 117

22.5 km/h aus WSW

13.8 C

16.1 C

15.9 C

17.5 C

246 W/m

0.00 mm

15:30

17.2 C

1015.2 hpa

81 %

16.1 km/h aus 116

25.7 km/h aus S

13.9 C

15.9 C

15.8 C

17.3 C

251 W/m

0.00 mm

15:35

17.2 C

1015.2 hpa

84 %

16.1 km/h aus 116

27.4 km/h aus SSW

14.5 C

16.1 C

15.8 C

17.5 C

356 W/m

0.00 mm

15:40

17.9 C

1015.2 hpa

82 %

14.5 km/h aus 117

25.7 km/h aus S

14.8 C

17.4 C

17.1 C

18.3 C

516 W/m

0.00 mm

15:45

18.1 C

1015.0 hpa

79 %

14.5 km/h aus 117

24.1 km/h aus S

14.4 C

17.5 C

17.2 C

18.3 C

509 W/m

0.00 mm

15:50

17.9 C

1015.0 hpa

78 %

19.3 km/h aus 117

32.2 km/h aus S

14.0 C

16.1 C

15.8 C

18.1 C

318 W/m

0.00 mm

15:55

17.6 C

1015.0 hpa

78 %

19.3 km/h aus 115

32.2 km/h aus SW

13.7 C

15.7 C

15.6 C

17.8 C

317 W/m

0.00 mm

16:00

17.6 C

1015.0 hpa

79 %

16.1 km/h aus 116

33.8 km/h aus S

13.9 C

16.5 C

16.3 C

17.8 C

305 W/m

0.00 mm

16:05

17.6 C

1015.0 hpa

79 %

19.3 km/h aus 117

32.2 km/h aus SSW

13.9 C

15.8 C

15.6 C

17.8 C

279 W/m

0.00 mm

16:10

17.7 C

1015.0 hpa

79 %

17.7 km/h aus 116

29.0 km/h aus SSW

14.0 C

16.2 C

15.9 C

17.9 C

236 W/m

0.00 mm

16:15

17.8 C

1014.9 hpa

79 %

11.3 km/h aus 117

27.4 km/h aus S

14.1 C

18.0 C

17.8 C

18.0 C

255 W/m

0.00 mm

16:20

17.7 C

1014.9 hpa

78 %

16.1 km/h aus 114

25.7 km/h aus SW

13.8 C

16.6 C

16.4 C

17.9 C

253 W/m

0.00 mm

16:25

17.6 C

1014.9 hpa

78 %

17.7 km/h aus 117

27.4 km/h aus SW

13.7 C

16.1 C

15.9 C

17.8 C

258 W/m

0.00 mm

16:30

17.8 C

1014.8 hpa

79 %

14.5 km/h aus 116

22.5 km/h aus SSW

14.1 C

17.2 C

16.9 C

18.1 C

337 W/m

0.00 mm

16:35

18.5 C

1014.8 hpa

77 %

16.1 km/h aus 117

24.1 km/h aus SSE

14.4 C

17.6 C

17.3 C

18.8 C

468 W/m

0.00 mm

16:40

18.9 C

1014.8 hpa

76 %

16.1 km/h aus 116

24.1 km/h aus SSW

14.6 C

18.1 C

17.8 C

19.2 C

676 W/m

0.00 mm

16:45

19.4 C

1015.0 hpa

75 %

11.3 km/h aus 115

25.7 km/h aus SSE

14.8 C

19.8 C

19.4 C

19.8 C

583 W/m

0.00 mm

16:50

19.6 C

1015.0 hpa

73 %

12.9 km/h aus 117

27.4 km/h aus SSW

14.6 C

19.6 C

19.3 C

19.9 C

561 W/m

0.00 mm

16:55

19.7 C

1015.0 hpa

74 %

16.1 km/h aus 117

29.0 km/h aus SSW

14.9 C

18.9 C

18.6 C

20.1 C

572 W/m

0.00 mm

17:00

19.5 C

1014.8 hpa

73 %

19.3 km/h aus 117

29.0 km/h aus S

14.5 C

18.1 C

17.7 C

19.8 C

522 W/m

0.00 mm

17:05

19.3 C

1014.8 hpa

75 %

14.5 km/h aus 115

24.1 km/h aus SSW

14.8 C

19.0 C

18.6 C

19.7 C

570 W/m

0.00 mm

17:10

19.8 C

1014.8 hpa

73 %

20.9 km/h aus 116

33.8 km/h aus WSW

14.9 C

18.2 C

17.8 C

20.2 C

507 W/m

0.00 mm

17:15

19.8 C

1014.8 hpa

72 %

17.7 km/h aus 117

33.8 km/h aus SSW

14.6 C

18.8 C

18.4 C

20.2 C

505 W/m

0.00 mm

17:20

20.1 C

1014.8 hpa

72 %

16.1 km/h aus 117

25.7 km/h aus SSW

14.9 C

19.3 C

18.9 C

20.5 C

512 W/m

0.00 mm

17:25

20.2 C

1014.8 hpa

70 %

17.7 km/h aus 116

32.2 km/h aus SW

14.5 C

19.0 C

18.7 C

20.4 C

463 W/m

0.00 mm

17:30

20.3 C

1014.8 hpa

72 %

14.5 km/h aus 113

32.2 km/h aus SW

15.1 C

19.9 C

19.6 C

20.7 C

462 W/m

0.00 mm

17:35

20.4 C

1014.8 hpa

71 %

14.5 km/h aus 117

25.7 km/h aus SW

15.0 C

19.9 C

19.7 C

20.7 C

456 W/m

0.00 mm

17:40

20.3 C

1014.8 hpa

72 %

14.5 km/h aus 117

24.1 km/h aus S

15.1 C

19.9 C

19.5 C

20.7 C

351 W/m

0.00 mm

17:45

20.2 C

1014.6 hpa

74 %

14.5 km/h aus 115

27.4 km/h aus S

15.4 C

19.9 C

19.4 C

20.7 C

331 W/m

0.00 mm

17:50

20.6 C

1014.6 hpa

71 %

12.9 km/h aus 115

22.5 km/h aus S

15.1 C

20.4 C

20.2 C

20.8 C

428 W/m

0.00 mm

17:55

20.4 C

1014.6 hpa

71 %

11.3 km/h aus 116

19.3 km/h aus WSW

15.0 C

20.7 C

20.4 C

20.7 C

234 W/m

0.00 mm

18:00

19.9 C

1014.7 hpa

73 %

12.9 km/h aus 117

22.5 km/h aus SSW

15.0 C

20.0 C

19.6 C

20.4 C

128 W/m

0.00 mm

18:05

19.7 C

1014.7 hpa

74 %

12.9 km/h aus 117

24.1 km/h aus SSW

15.0 C

19.8 C

19.4 C

20.1 C

117 W/m

0.00 mm

18:10

19.7 C

1014.7 hpa

74 %

12.9 km/h aus 116

22.5 km/h aus S

14.9 C

19.7 C

19.3 C

20.1 C

141 W/m

0.00 mm

18:15

20.3 C

1014.7 hpa

73 %

12.9 km/h aus 114

22.5 km/h aus SSW

15.3 C

20.4 C

19.9 C

20.8 C

423 W/m

0.00 mm

18:20

20.1 C

1014.7 hpa

72 %

12.9 km/h aus 117

20.9 km/h aus S

14.9 C

20.1 C

19.7 C

20.5 C

184 W/m

0.00 mm

18:25

20.1 C

1014.7 hpa

71 %

8.0 km/h aus 117

16.1 km/h aus WSW

14.7 C

20.4 C

20.1 C

20.4 C

334 W/m

0.00 mm

18:30

20.2 C

1014.8 hpa

72 %

11.3 km/h aus 117

27.4 km/h aus SW

15.0 C

20.6 C

20.2 C

20.6 C

297 W/m

0.00 mm

18:35

20.2 C

1014.8 hpa

72 %

11.3 km/h aus 115

24.1 km/h aus SSW

15.0 C

20.6 C

20.2 C

20.6 C

298 W/m

0.00 mm

18:40

19.9 C

1014.8 hpa

74 %

9.7 km/h aus 116

17.7 km/h aus SSW

15.1 C

20.3 C

19.9 C

20.3 C

122 W/m

0.00 mm

18:45

20.1 C

1014.8 hpa

73 %

8.0 km/h aus 118

16.1 km/h aus S

15.1 C

20.6 C

20.1 C

20.6 C

268 W/m

0.00 mm

18:50

19.9 C

1014.8 hpa

73 %

8.0 km/h aus 116

14.5 km/h aus S

14.9 C

20.3 C

19.9 C

20.3 C

151 W/m

0.00 mm

18:55

19.9 C

1014.8 hpa

74 %

6.4 km/h aus 115

12.9 km/h aus SSW

15.1 C

20.3 C

19.9 C

20.3 C

184 W/m

0.00 mm

19:00

19.8 C

1014.8 hpa

74 %

4.8 km/h aus 115

12.9 km/h aus WSW

15.1 C

20.3 C

19.8 C

20.3 C

66 W/m

0.00 mm

19:05

19.8 C

1014.8 hpa

73 %

4.8 km/h aus 117

11.3 km/h aus S

14.9 C

20.2 C

19.8 C

20.2 C

63 W/m

0.00 mm

19:10

19.8 C

1014.8 hpa

72 %

9.7 km/h aus 117

17.7 km/h aus SW

14.6 C

20.2 C

19.8 C

20.2 C

89 W/m

0.00 mm

19:15

19.8 C

1014.8 hpa

73 %

4.8 km/h aus 117

11.3 km/h aus S

14.8 C

20.2 C

19.8 C

20.2 C

81 W/m

0.00 mm

19:20

19.8 C

1014.8 hpa

73 %

8.0 km/h aus 113

19.3 km/h aus W

14.8 C

20.2 C

19.8 C

20.2 C

58 W/m

0.00 mm

19:25

19.7 C

1014.8 hpa

72 %

8.0 km/h aus 115

17.7 km/h aus WSW

14.5 C

20.1 C

19.7 C

20.1 C

65 W/m

0.00 mm

19:30

19.6 C

1014.8 hpa

71 %

6.4 km/h aus 116

16.1 km/h aus WNW

14.2 C

19.9 C

19.6 C

19.9 C

51 W/m

0.00 mm

19:35

19.5 C

1014.8 hpa

66 %

11.3 km/h aus 117

24.1 km/h aus NW

13.0 C

19.6 C

19.5 C

19.6 C

34 W/m

0.00 mm

19:40

19.3 C

1014.8 hpa

61 %

11.3 km/h aus 116

25.7 km/h aus WSW

11.6 C

19.1 C

19.3 C

19.1 C

33 W/m

0.00 mm

19:45

19.2 C

1014.9 hpa

61 %

11.3 km/h aus 115

22.5 km/h aus WNW

11.5 C

18.9 C

19.2 C

18.9 C

56 W/m

0.00 mm

19:50

19.2 C

1014.9 hpa

60 %

14.5 km/h aus 116

25.7 km/h aus W

11.2 C

18.1 C

18.4 C

18.8 C

72 W/m

0.00 mm

19:55

19.2 C

1014.9 hpa

60 %

9.7 km/h aus 117

22.5 km/h aus W

11.2 C

18.8 C

19.2 C

18.8 C

71 W/m

0.00 mm

20:00

19.2 C

1015.2 hpa

60 %

11.3 km/h aus 117

20.9 km/h aus WNW

11.2 C

18.8 C

19.2 C

18.8 C

74 W/m

0.00 mm

20:05

19.1 C

1015.2 hpa

60 %

12.9 km/h aus 114

27.4 km/h aus NW

11.2 C

18.4 C

18.8 C

18.8 C

69 W/m

0.00 mm

20:10

19.1 C

1015.2 hpa

60 %

11.3 km/h aus 114

25.7 km/h aus NW

11.1 C

18.7 C

19.1 C

18.7 C

56 W/m

0.00 mm

20:15

19.0 C

1015.3 hpa

61 %

8.0 km/h aus 117

20.9 km/h aus WNW

11.3 C

18.7 C

19.0 C

18.7 C

48 W/m

0.00 mm

20:20

18.9 C

1015.3 hpa

60 %

14.5 km/h aus 117

27.4 km/h aus WNW

11.0 C

17.8 C

18.2 C

18.5 C

36 W/m

0.00 mm

20:25

18.7 C

1015.3 hpa

61 %

11.3 km/h aus 116

22.5 km/h aus WSW

11.0 C

18.4 C

18.7 C

18.4 C

25 W/m

0.00 mm

20:30

18.6 C

1015.4 hpa

61 %

8.0 km/h aus 114

20.9 km/h aus WNW

10.9 C

18.3 C

18.6 C

18.3 C

19 W/m

0.00 mm

20:35

18.4 C

1015.4 hpa

61 %

8.0 km/h aus 116

17.7 km/h aus WNW

10.8 C

18.1 C

18.4 C

18.1 C

14 W/m

0.00 mm

20:40

18.3 C

1015.4 hpa

62 %

6.4 km/h aus 117

20.9 km/h aus W

10.9 C

17.9 C

18.3 C

17.9 C

10 W/m

0.00 mm

20:45

18.1 C

1015.5 hpa

62 %

4.8 km/h aus 117

11.3 km/h aus W

10.7 C

17.7 C

18.1 C

17.7 C

7 W/m

0.00 mm

20:50

17.9 C

1015.5 hpa

61 %

8.0 km/h aus 115

19.3 km/h aus W

10.3 C

17.5 C

17.9 C

17.5 C

6 W/m

0.00 mm

20:55

17.8 C

1015.5 hpa

61 %

8.0 km/h aus 114

17.7 km/h aus NW

10.2 C

17.3 C

17.8 C

17.3 C

3 W/m

0.00 mm

21:00

17.7 C

1015.8 hpa

62 %

9.7 km/h aus 116

22.5 km/h aus W

10.3 C

17.2 C

17.7 C

17.2 C

0 W/m

0.00 mm

21:05

17.5 C

1015.8 hpa

62 %

8.0 km/h aus 117

17.7 km/h aus W

10.1 C

17.1 C

17.5 C

17.1 C

0 W/m

0.00 mm

21:10

17.4 C

1015.8 hpa

63 %

4.8 km/h aus 117

9.7 km/h aus NW

10.3 C

17.1 C

17.4 C

17.1 C

0 W/m

0.00 mm

21:15

17.3 C

1015.8 hpa

64 %

4.8 km/h aus 116

14.5 km/h aus WNW

10.5 C

16.9 C

17.3 C

16.9 C

0 W/m

0.00 mm

21:20

17.2 C

1015.8 hpa

64 %

6.4 km/h aus 115

14.5 km/h aus W

10.3 C

16.8 C

17.2 C

16.8 C

0 W/m

0.00 mm

21:25

17.1 C

1015.8 hpa

65 %

6.4 km/h aus 117

16.1 km/h aus WNW

10.4 C

16.7 C

17.1 C

16.7 C

0 W/m

0.00 mm

21:30

16.9 C

1015.9 hpa

65 %

8.0 km/h aus 117

19.3 km/h aus W

10.3 C

16.5 C

16.9 C

16.5 C

0 W/m

0.00 mm

21:35

16.7 C

1015.9 hpa

66 %

6.4 km/h aus 116

19.3 km/h aus WNW

10.3 C

16.4 C

16.7 C

16.4 C

0 W/m

0.00 mm

21:40

16.6 C

1015.9 hpa

66 %

6.4 km/h aus 115

16.1 km/h aus WNW

10.2 C

16.2 C

16.6 C

16.2 C

0 W/m

0.00 mm

21:45

16.5 C

1016.0 hpa

66 %

4.8 km/h aus 114

11.3 km/h aus W

10.1 C

16.1 C

16.5 C

16.1 C

0 W/m

0.00 mm

21:50

16.4 C

1016.0 hpa

67 %

3.2 km/h aus 117

9.7 km/h aus WSW

10.3 C

16.1 C

16.4 C

16.1 C

0 W/m

0.00 mm

21:55

16.3 C

1016.0 hpa

67 %

1.6 km/h aus 117

4.8 km/h aus W

10.2 C

15.9 C

16.3 C

15.9 C

0 W/m

0.00 mm

22:00

16.2 C

1016.2 hpa

68 %

1.6 km/h aus 117

6.4 km/h aus W

10.3 C

15.8 C

16.2 C

15.8 C

0 W/m

0.00 mm

22:05

16.1 C

1016.2 hpa

68 %

1.6 km/h aus 114

6.4 km/h aus W

10.2 C

15.7 C

16.1 C

15.7 C

0 W/m

0.00 mm

22:10

16.0 C

1016.2 hpa

69 %

3.2 km/h aus 114

9.7 km/h aus WSW

10.3 C

15.7 C

16.0 C

15.7 C

0 W/m

0.00 mm

22:15

15.8 C

1016.3 hpa

70 %

3.2 km/h aus 116

6.4 km/h aus WSW

10.4 C

15.5 C

15.8 C

15.5 C

0 W/m

0.00 mm

22:20

15.7 C

1016.3 hpa

70 %

1.6 km/h aus 116

6.4 km/h aus WSW

10.3 C

15.4 C

15.7 C

15.4 C

0 W/m

0.00 mm

22:25

15.6 C

1016.3 hpa

70 %

0.0 km/h aus 117

3.2 km/h aus WSW

10.2 C

15.3 C

15.6 C

15.3 C

0 W/m

0.00 mm

22:30

15.4 C

1016.1 hpa

71 %

0.0 km/h aus 115

4.8 km/h aus WSW

10.2 C

15.1 C

15.4 C

15.1 C

0 W/m

0.00 mm

22:35

15.3 C

1016.1 hpa

71 %

0.0 km/h aus 114

0.0 km/h aus ---

10.1 C

15.0 C

15.3 C

15.0 C

0 W/m

0.00 mm

22:40

15.3 C

1016.1 hpa

72 %

0.0 km/h aus 117

0.0 km/h aus ---

10.3 C

14.9 C

15.3 C

14.9 C

0 W/m

0.00 mm

22:45

15.1 C

1016.1 hpa

72 %

0.0 km/h aus 116

3.2 km/h aus WSW

10.1 C

14.8 C

15.1 C

14.8 C

0 W/m

0.00 mm

22:50

15.0 C

1016.1 hpa

73 %

0.0 km/h aus 117

0.0 km/h aus ---

10.2 C

14.7 C

15.0 C

14.7 C

0 W/m

0.00 mm

22:55

14.8 C

1016.1 hpa

74 %

1.6 km/h aus 116

8.0 km/h aus SW

10.2 C

14.6 C

14.8 C

14.6 C

0 W/m

0.00 mm

23:00

14.7 C

1016.2 hpa

74 %

0.0 km/h aus 116

6.4 km/h aus SSW

10.1 C

14.3 C

14.7 C

14.3 C

0 W/m

0.00 mm

23:05

14.5 C

1016.2 hpa

74 %

1.6 km/h aus 116

6.4 km/h aus SW

9.9 C

14.2 C

14.5 C

14.2 C

0 W/m

0.00 mm

23:10

14.3 C

1016.2 hpa

76 %

1.6 km/h aus 117

8.0 km/h aus SSW

10.2 C

14.1 C

14.3 C

14.1 C

0 W/m

0.00 mm

23:15

14.2 C

1016.1 hpa

76 %

3.2 km/h aus 116

6.4 km/h aus SSW

10.0 C

14.0 C

14.2 C

14.0 C

0 W/m

0.00 mm

23:20

14.2 C

1016.1 hpa

76 %

1.6 km/h aus 114

6.4 km/h aus SW

10.0 C

13.9 C

14.2 C

13.9 C

0 W/m

0.00 mm

23:25

14.1 C

1016.1 hpa

76 %

1.6 km/h aus 115

4.8 km/h aus WSW

9.9 C

13.8 C

14.1 C

13.8 C

0 W/m

0.00 mm

23:30

14.0 C

1016.3 hpa

77 %

0.0 km/h aus 116

3.2 km/h aus WSW

10.0 C

13.8 C

14.0 C

13.8 C

0 W/m

0.00 mm

23:35

13.9 C

1016.3 hpa

77 %

1.6 km/h aus 117

6.4 km/h aus WSW

10.0 C

13.7 C

13.9 C

13.7 C

0 W/m

0.00 mm

23:40

13.9 C

1016.3 hpa

78 %

4.8 km/h aus 117

9.7 km/h aus WSW

10.1 C

13.7 C

13.9 C

13.7 C

0 W/m

0.00 mm

23:45

13.8 C

1016.3 hpa

78 %

3.2 km/h aus 117

9.7 km/h aus SW

10.1 C

13.6 C

13.8 C

13.6 C

0 W/m

0.00 mm

23:50

13.8 C

1016.3 hpa

79 %

3.2 km/h aus 115

8.0 km/h aus WSW

10.3 C

13.7 C

13.8 C

13.7 C

0 W/m

0.00 mm

23:55

13.8 C

1016.3 hpa

79 %

3.2 km/h aus 115

6.4 km/h aus WSW

10.3 C

13.7 C

13.8 C

13.7 C

0 W/m

0.00 mm